Vertical_Velocity
-11 -5 -4 -5 1 2 -2 -5 -12 -10 9 -4 6 5 -2 2 4 -1 -3 6 3 5 -0 -0 3 0 -2 -0 2 1 -1 -1 -2 -2 -1 -2 -3 -1 -1 1 -0 -0 -1 -3 1 1 -2 6 13 11 1 2 2 -1
-6 -5 -11 -4 -5 -8 -2 3 -4 -1 20 4 5 5 -3 6 6 5 -6 2 4 6 -1 1 -2 1 -1 -1 -1 -1 -0 -1 -4 -2 -1 -2 -2 -2 -1 -1 0 -0 -2 -1 6 1 7 0 -3 5 2 -4 -4 -2
-8 -4 -8 -0 -1 -3 7 -3 -1 -7 6 9 5 8 -1 5 -5 2 -20 4 6 5 1 -1 0 -0 -1 -0 2 -0 1 -0 -3 -2 -1 -1 -2 -1 -2 -4 1 -2 -1 -4 1 -6 -6 -1 3 3 -1 5 2 4
-9 -5 -3 -1 2 -7 0 -9 -11 12 5 3 5 8 -2 -4 -12 0 1 3 4 5 3 -4 1 0 -0 0 -0 0 1 -0 -2 -2 -0 0 -1 -0 -2 -0 -3 6 -0 2 -4 -0 5 -2 -0 5 2 1 4 -0
-6 -5 -5 4 7 8 1 7 -8 10 7 5 5 1 -3 -7 -0 6 5 6 4 2 4 1 0 0 0 -0 -1 0 -0 -1 -2 -2 -1 -2 -1 1 -0 -1 -1 0 -1 -1 -5 -3 -5 6 -1 1 4 -0 2 -1
-7 -7 2 5 -3 5 -8 4 1 13 6 6 9 11 1 1 6 9 6 5 3 6 5 -0 1 -1 -1 0 0 0 -2 -1 -1 0 -1 -3 -1 -0 -2 -1 -1 -2 -3 -4 -2 7 0 -2 6 -4 10 -0 -3 -1
-4 -6 4 -1 -1 5 9 -6 12 5 3 13 11 -6 -9 2 6 5 -4 -7 0 6 0 -1 -3 -2 2 0 -0 -1 -2 -0 1 -1 -3 -3 -2 -2 -2 -2 -1 -2 -2 0 7 1 1 8 -8 -5 -4 8 3 -2
-4 -4 1 2 1 6 -2 1 6 8 9 6 4 -5 -1 4 7 8 3 4 2 -2 5 -1 -2 0 1 -1 -1 -2 -2 -0 -1 -1 1 -1 -2 -2 -5 -2 -1 -0 -1 2 -1 -2 -5 5 4 -3 -4 10 2 -0
-1 -2 -1 4 3 2 -4 2 4 3 8 2 0 -3 2 9 6 -1 5 -0 1 2 2 -1 -0 -1 -0 -1 -2 -2 -1 -1 -0 -1 -1 -2 -2 -5 -3 -1 2 -2 -3 -3 -2 4 -3 2 5 2 -4 1 6 -0
1 -0 6 12 1 -1 -2 6 1 4 5 10 8 -5 5 -1 5 2 -0 3 4 -6 -1 -5 1 -1 1 -1 -1 -2 -0 -1 -1 -1 0 -1 -2 -2 -3 -2 -3 -1 -0 2 -2 -1 -2 4 -3 1 0 -4 3 12
5 1 4 6 1 -3 5 6 2 9 7 9 -10 -5 -7 1 -0 -0 -2 5 2 2 -1 -3 2 4 -1 -1 -2 -3 -2 -1 -1 -2 0 -2 -2 -2 -1 -2 -3 1 -1 2 -0 -2 2 1 4 -3 -1 -0 1 3
4 -2 13 7 3 4 4 6 -6 0 -1 -7 4 5 7 -4 0 2 -8 -8 -0 -2 -1 0 1 3 -3 -0 -2 -2 -1 -1 -2 -1 1 -3 -0 -2 -2 -3 -1 -0 1 1 0 -4 1 0 0 0 -3 -3 5 7
-3 9 8 4 -4 5 5 5 5 7 1 5 3 -8 -9 0 2 -6 -5 -0 -2 -3 -3 -2 -4 -1 0 -1 -1 -2 -2 -1 -1 0 -3 -1 -2 -2 -4 -3 -2 -2 -1 -0 -3 -1 -0 -1 -1 0 -3 -3 -1 -1
8 6 9 5 -0 6 1 0 2 4 11 10 -3 -9 -4 -5 -2 -4 -2 -2 1 -1 -1 1 2 -4 -2 -2 1 -1 -1 -0 -0 -1 -2 -1 -3 -2 -1 -1 -1 -0 -1 -4 -4 -1 0 2 2 1 1 -2 -2 -1
6 12 4 8 4 0 5 8 12 16 6 -4 -5 -5 -3 -2 -0 -3 -4 -0 -0 1 -2 -3 2 -1 -2 -1 1 -3 -2 -2 -2 -3 0 -4 -3 -0 -1 -2 -1 -3 -2 -1 -1 -4 1 1 2 0 2 1 -1 0
10 6 15 14 10 3 0 12 11 11 3 -1 -3 -3 -2 -5 -3 -1 -1 -2 0 1 -1 2 -1 -3 -3 -0 -2 -3 -2 -4 -1 -1 -2 -2 -1 -1 -2 -1 -2 -3 -2 -2 -4 -4 -1 0 2 2 -1 3 1 0
17 -3 -3 2 -2 4 18 12 11 9 -2 -0 -3 -5 -8 -1 1 -2 -0 0 2 2 -2 -1 -3 -3 -0 -3 -4 -5 -4 0 -0 -1 -2 -2 -2 -1 -2 -4 -1 0 0 -0 -0 -1 1 -3 -1 4 2 1 2 1
11 -5 1 1 1 11 6 15 5 -1 -1 -5 -4 -2 1 -0 -1 -3 -2 0 0 1 1 -5 -2 -2 -2 -3 -4 -2 -3 -2 2 -1 -3 -2 -2 -2 -1 -3 -2 -1 2 2 1 -1 -3 1 -1 2 1 -0 1 2
-4 -3 0 3 10 10 10 14 4 -3 -2 -1 -3 1 -0 -1 -0 -1 1 -3 1 4 1 -0 -4 -3 -2 -3 -2 -2 -2 1 1 -2 -3 -2 -3 -2 -1 -1 0 -1 0 -1 -0 1 -1 1 2 2 3 2 3 3
11 23 16 18 18 12 -0 3 4 -4 -0 -0 0 -0 1 -1 -1 -1 -0 1 0 1 1 -6 -2 1 -2 -3 -3 -3 -1 0 -0 -2 -1 1 0 -2 -2 -2 -3 -2 0 1 1 -1 -1 -2 -2 4 4 3 0 -1
5 9 11 12 8 -0 -3 3 -3 -3 -1 -5 -3 1 -1 -0 0 -1 -1 -1 -1 -8 -1 3 5 -3 -0 -3 -2 -0 1 0 -1 -1 -1 1 0 0 -1 0 -1 -0 1 -2 -0 1 2 -1 -1 -3 1 2 2 3
6 7 15 14 10 -2 0 2 -1 -4 -6 -4 3 0 0 -0 0 -0 1 -4 -5 3 1 3 0 -3 -2 -0 1 3 0 -2 -2 -1 -1 0 -0 1 1 -2 -1 -1 0 -1 0 1 0 -0 0 -1 0 -0 1 1
20 22 11 7 4 3 4 1 1 -1 -3 -1 1 1 -2 -2 -1 3 -2 -5 -0 3 -4 -2 -1 -0 1 2 1 -0 -1 0 1 -0 2 2 -0 -0 -1 -1 -0 -1 -0 -1 3 3 1 -1 -2 1 2 1 -0 0
21 6 1 -5 1 -1 -2 -3 -2 -1 -1 -2 -2 -1 -1 -3 0 -0 -7 -0 3 -3 -1 -1 -0 1 2 1 0 -1 -1 -1 -0 1 -0 -1 -1 -2 -1 -2 -1 0 -0 3 0 1 3 0 -1 -3 1 1 -1 2
2 -1 -1 -3 -3 -3 -3 -1 -1 -0 -3 -2 1 -1 -4 -1 1 -0 -3 -1 -3 -2 -1 -0 -0 -1 -0 0 -2 -3 -3 -2 0 -1 -2 -2 -3 -2 -2 -1 -1 3 1 2 2 1 -1 -2 -1 -0 1 1 -0 0
-6 -3 -3 -2 -2 -2 -3 -0 -1 -2 0 1 -2 -0 -1 -0 -1 -3 -4 -1 -1 0 -1 -3 -2 0 -0 -1 -2 -0 1 -1 -1 -4 -5 -5 -4 -4 -5 -2 -3 -1 -3 -3 -1 0 -1 -5 -3 -0 1 1 -1 0
-3 -1 -3 -1 -3 -2 -2 0 -0 -1 -1 -3 -5 -2 -1 -3 -3 -4 -1 -1 0 -1 -2 -2 -0 0 0 2 2 1 0 -1 -1 -4 -2 -2 -1 -1 -1 -1 -2 -0 -2 -1 -0 0 0 1 1 -0 2 1 -3 -2
-5 -7 -3 -2 -3 -1 -3 1 1 -0 -1 -1 2 -0 -2 -2 -2 0 -0 -0 -1 -1 -1 -0 0 2 2 2 0 0 -2 -2 -2 -3 -2 -1 -0 1 1 1 -2 1 2 -1 -1 -1 -0 -0 -0 2 2 3 3 -6
-4 -2 -1 -1 2 3 3 1 -0 -2 -2 0 -3 -0 -2 -1 -1 -0 -1 -1 -1 -2 -3 -2 0 0 -0 -0 -1 -1 -0 0 1 0 -1 -3 -3 -3 -2 2 -0 -3 1 3 -0 -1 -2 -3 -1 0 2 1 2 -2
-2 -2 -1 -1 -1 -1 -1 -0 -0 -0 0 0 0 -0 -1 -1 -1 -0 -1 -3 -4 -2 -0 1 1 1 2 1 0 -1 -2 -2 -1 -2 1 3 3 0 1 -0 -1 0 -1 -1 1 1 -5 -2 -1 -2 -2 -0 0 0
-2 -1 0 1 -1 -0 0 -0 -1 -2 -2 -0 0 -0 -2 -3 -2 -2 -4 -3 -2 -1 1 1 1 1 0 -1 -0 0 -2 -4 -3 0 2 -2 -4 -0 1 -2 -2 -1 -0 -1 -1 -2 0 3 1 1 2 2 3 -1
-2 -3 1 -0 0 -1 -1 -1 -1 -1 -2 -1 -1 -1 -1 -1 -2 -1 -0 -1 -1 1 2 0 -0 -1 -1 -1 -2 -2 -2 -3 -4 -1 -1 2 -1 -0 0 -2 -2 -1 -1 -2 -1 -1 -2 -1 1 0 1 3 2 2
1 -0 1 1 -0 -0 0 1 -1 -0 -0 0 0 1 -0 -1 -1 1 -1 0 0 1 -1 -2 -2 -0 -1 -0 -1 -2 -3 -2 -2 -0 -1 -1 0 1 1 0 -0 -0 -1 -0 -1 -0 -0 -0 1 1 1 1 1 1
Height
2883 2885 2891 2893 2896 2899 2900 2903 2910 2917 2927 2931 2945 2955 2969 2979 2989 2996 3004 3011 3018 3021 3025 3027 3029 3030 3029 3028 3026 3023 3023 3021 3022 3022 3022 3022 3022 3023 3023 3023 3023 3023 3022 3021 3021 3022 3022 3019 3021 3021 3019 3018 3018 3019
2875 2878 2884 2889 2892 2894 2895 2900 2907 2914 2922 2930 2940 2951 2965 2975 2986 2993 3000 3009 3014 3019 3023 3024 3025 3026 3025 3024 3022 3020 3020 3018 3019 3020 3021 3021 3021 3021 3021 3021 3022 3022 3021 3020 3020 3018 3016 3014 3012 3014 3016 3017 3017 3017
2865 2870 2877 2882 2886 2889 2890 2893 2902 2909 2917 2926 2937 2947 2960 2969 2979 2989 3002 3007 3012 3016 3020 3022 3022 3022 3021 3020 3019 3018 3016 3016 3016 3017 3018 3019 3020 3018 3018 3019 3018 3017 3016 3016 3016 3014 3013 3005 3008 3011 3013 3014 3014 3014
2854 2862 2868 2874 2879 2884 2886 2892 2900 2907 2913 2923 2933 2943 2950 2962 2974 2990 2998 3004 3010 3014 3016 3018 3019 3019 3017 3016 3015 3014 3013 3013 3014 3015 3016 3016 3016 3016 3015 3015 3014 3014 3013 3010 3007 3008 3008 3006 3006 3007 3008 3009 3010 3011
2842 2852 2859 2865 2873 2879 2883 2892 2897 2903 2912 2921 2930 2939 2947 2960 2976 2988 2995 3002 3006 3013 3012 3014 3016 3015 3014 3013 3012 3011 3011 3011 3012 3012 3013 3014 3013 3012 3011 3011 3009 3008 3006 3005 3002 3001 3001 3000 3000 3002 3002 3003 3004 3006
2830 2841 2850 2859 2868 2874 2881 2890 2896 2903 2911 2921 2930 2939 2952 2964 2975 2985 2991 2997 3002 3006 3010 3011 3012 3011 3010 3009 3009 3009 3009 3009 3010 3010 3010 3010 3010 3011 3009 3007 3006 3003 3001 2999 2996 2994 2992 2993 2994 2993 2997 2998 2999 3001
2819 2831 2843 2853 2862 2870 2879 2887 2895 2901 2911 2922 2932 2941 2950 2962 2973 2980 2987 2994 2999 3003 3007 3008 3008 3006 3005 3006 3007 3007 3007 3007 3007 3006 3006 3006 3006 3008 3006 3005 3003 2998 2995 2991 2988 2983 2981 2982 2983 2986 2989 2992 2994 2996
2809 2825 2836 2847 2856 2868 2876 2885 2894 2901 2911 2920 2931 2940 2953 2964 2973 2980 2986 2992 2997 3001 3004 3004 3002 3003 3003 3003 3005 3005 3004 3004 3003 3002 3003 3003 3004 3003 3002 3002 2998 2994 2988 2983 2977 2974 2974 2975 2977 2979 2985 2988 2990 2993
2804 2820 2832 2840 2851 2864 2875 2884 2891 2899 2911 2920 2927 2939 2954 2964 2971 2978 2985 2991 2994 2999 2997 2997 2999 3000 2999 3000 3002 3003 3002 3001 3000 2999 3000 3001 3000 3000 2999 2996 2993 2987 2983 2978 2973 2972 2973 2975 2977 2978 2982 2983 2986 2989
2802 2816 2827 2839 2851 2862 2872 2881 2888 2900 2912 2921 2932 2944 2955 2962 2973 2980 2986 2989 2992 2992 2991 2992 2994 2995 2999 2998 2999 3002 2999 2999 2997 2998 2997 2997 2996 2997 2995 2992 2988 2985 2982 2978 2976 2974 2974 2975 2977 2978 2980 2981 2984 2985
2800 2814 2826 2840 2850 2859 2869 2879 2888 2901 2912 2922 2930 2941 2949 2961 2972 2980 2984 2985 2985 2983 2981 2982 2986 2990 2993 2996 2997 2998 2997 2996 2996 2997 2996 2993 2994 2994 2993 2990 2987 2983 2980 2978 2976 2975 2975 2974 2976 2978 2979 2979 2981 2982
2803 2814 2828 2840 2850 2859 2868 2878 2887 2900 2911 2923 2933 2942 2949 2964 2973 2976 2975 2977 2974 2975 2971 2973 2978 2984 2988 2992 2993 2995 2995 2995 2994 2995 2994 2990 2991 2991 2990 2988 2985 2982 2979 2977 2975 2975 2974 2975 2975 2975 2976 2977 2977 2978
2805 2818 2830 2840 2849 2860 2871 2880 2892 2905 2914 2925 2936 2943 2951 2959 2962 2960 2960 2960 2962 2963 2965 2968 2974 2981 2985 2989 2991 2992 2992 2993 2994 2992 2988 2987 2989 2989 2988 2986 2983 2980 2977 2974 2972 2972 2972 2972 2972 2972 2972 2973 2974 2974
2811 2822 2833 2841 2852 2864 2872 2882 2893 2902 2915 2925 2932 2939 2945 2946 2947 2948 2952 2955 2959 2961 2964 2968 2974 2979 2982 2985 2987 2988 2990 2991 2990 2988 2984 2986 2986 2986 2985 2984 2982 2979 2976 2973 2970 2969 2968 2969 2969 2969 2969 2970 2970 2970
2814 2825 2834 2846 2855 2864 2874 2885 2895 2906 2914 2923 2932 2934 2936 2938 2941 2945 2949 2953 2957 2960 2963 2968 2974 2978 2980 2983 2983 2985 2988 2986 2983 2981 2982 2983 2984 2984 2983 2982 2980 2978 2975 2972 2969 2967 2965 2964 2965 2965 2965 2965 2964 2964
2818 2826 2839 2848 2857 2867 2876 2887 2896 2907 2916 2922 2926 2928 2932 2936 2939 2942 2947 2952 2957 2960 2964 2969 2972 2975 2977 2978 2978 2980 2983 2978 2978 2978 2980 2981 2982 2981 2980 2979 2977 2975 2973 2971 2970 2967 2966 2964 2962 2961 2962 2962 2962 2962
2825 2833 2841 2852 2860 2871 2882 2890 2900 2911 2917 2919 2923 2928 2931 2935 2938 2942 2946 2951 2954 2959 2962 2966 2968 2970 2972 2972 2974 2974 2975 2976 2975 2976 2977 2978 2979 2978 2976 2974 2972 2971 2969 2968 2967 2966 2964 2963 2963 2961 2960 2959 2959 2959
2828 2833 2843 2853 2862 2873 2883 2894 2903 2908 2913 2918 2924 2928 2930 2934 2938 2941 2945 2949 2954 2958 2961 2964 2966 2967 2968 2968 2970 2972 2972 2973 2973 2973 2974 2975 2974 2973 2972 2970 2969 2969 2967 2965 2964 2963 2962 2961 2961 2960 2959 2958 2957 2957
2828 2837 2849 2860 2869 2878 2889 2898 2903 2906 2912 2919 2924 2927 2930 2933 2937 2941 2944 2948 2953 2957 2959 2960 2963 2963 2965 2966 2967 2968 2968 2969 2970 2970 2970 2970 2970 2969 2968 2966 2965 2964 2963 2962 2961 2960 2959 2958 2958 2956 2955 2955 2954 2953
2839 2849 2857 2866 2875 2883 2891 2898 2902 2909 2914 2919 2923 2927 2930 2933 2936 2939 2943 2947 2951 2954 2956 2957 2958 2961 2962 2962 2963 2963 2964 2964 2965 2965 2965 2965 2964 2963 2962 2961 2960 2959 2958 2958 2956 2955 2955 2955 2953 2953 2951 2949 2948 2947
2842 2852 2860 2868 2876 2885 2891 2896 2902 2909 2913 2918 2922 2925 2928 2932 2934 2937 2941 2944 2947 2950 2951 2954 2956 2957 2957 2957 2957 2958 2958 2958 2958 2958 2958 2958 2957 2956 2956 2955 2955 2954 2953 2952 2951 2949 2948 2948 2947 2947 2946 2944 2943 2943
2847 2856 2863 2871 2879 2887 2892 2896 2903 2907 2914 2917 2921 2924 2927 2930 2934 2936 2940 2942 2944 2947 2949 2951 2951 2950 2951 2951 2952 2952 2952 2952 2952 2951 2951 2951 2950 2949 2948 2948 2948 2948 2947 2947 2946 2944 2943 2942 2941 2940 2939 2938 2937 2936
2855 2861 2870 2879 2886 2890 2894 2897 2903 2907 2912 2916 2919 2922 2924 2928 2932 2935 2937 2938 2940 2942 2944 2944 2945 2946 2946 2946 2946 2946 2946 2946 2945 2944 2943 2943 2942 2941 2941 2941 2942 2942 2943 2942 2941 2940 2939 2938 2937 2936 2934 2932 2931 2929
2863 2870 2877 2883 2885 2888 2893 2896 2901 2906 2909 2912 2916 2919 2923 2926 2929 2931 2932 2935 2937 2938 2939 2940 2941 2941 2941 2941 2940 2940 2939 2939 2938 2937 2937 2936 2936 2936 2936 2937 2938 2939 2939 2938 2937 2937 2936 2934 2933 2932 2930 2929 2927 2925
2872 2877 2881 2882 2885 2890 2892 2895 2898 2902 2905 2909 2913 2917 2920 2924 2926 2927 2928 2931 2932 2933 2933 2934 2936 2936 2935 2935 2934 2934 2934 2934 2933 2933 2933 2932 2932 2933 2934 2935 2936 2937 2936 2936 2934 2932 2930 2929 2928 2926 2925 2923 2922 2920
2872 2875 2880 2880 2884 2889 2891 2894 2897 2900 2904 2908 2911 2915 2918 2921 2923 2924 2925 2926 2927 2927 2929 2930 2931 2931 2931 2932 2932 2933 2933 2933 2933 2933 2933 2932 2932 2932 2932 2932 2932 2932 2931 2930 2928 2926 2924 2922 2920 2919 2917 2915 2913 2912
2871 2873 2876 2879 2882 2886 2889 2892 2896 2900 2903 2906 2909 2912 2916 2918 2919 2920 2921 2922 2923 2924 2926 2927 2929 2930 2931 2932 2932 2932 2931 2931 2931 2931 2931 2930 2930 2929 2928 2927 2926 2925 2923 2921 2919 2917 2915 2913 2911 2909 2907 2905 2903 2901
2870 2873 2877 2880 2882 2884 2887 2890 2894 2898 2901 2904 2907 2909 2912 2914 2915 2917 2918 2919 2920 2922 2923 2925 2927 2928 2929 2929 2929 2929 2928 2928 2928 2927 2927 2925 2924 2923 2921 2919 2917 2916 2913 2911 2909 2906 2903 2901 2899 2897 2895 2893 2892 2890
2870 2873 2876 2878 2881 2884 2886 2890 2892 2895 2898 2901 2903 2906 2908 2910 2913 2914 2915 2917 2918 2919 2921 2922 2924 2925 2925 2925 2925 2925 2924 2924 2923 2922 2920 2918 2916 2915 2912 2910 2906 2903 2901 2898 2896 2893 2891 2888 2885 2883 2881 2879 2878 2876
2870 2872 2875 2877 2880 2883 2886 2889 2891 2894 2896 2899 2901 2903 2906 2908 2910 2911 2913 2914 2916 2917 2918 2919 2920 2921 2921 2921 2921 2920 2919 2918 2916 2915 2912 2911 2908 2905 2901 2899 2896 2892 2889 2886 2883 2880 2876 2872 2869 2867 2865 2863 2862 2861
2868 2872 2874 2877 2880 2883 2886 2888 2891 2893 2895 2897 2899 2901 2903 2905 2907 2908 2910 2911 2912 2913 2915 2916 2917 2917 2917 2916 2915 2914 2912 2910 2908 2905 2902 2899 2897 2893 2890 2886 2883 2879 2875 2872 2868 2864 2861 2858 2855 2852 2849 2846 2845 2843
2867 2870 2874 2876 2879 2882 2885 2887 2889 2891 2893 2895 2896 2898 2900 2901 2903 2905 2906 2907 2909 2911 2912 2912 2912 2912 2911 2910 2908 2906 2903 2901 2898 2896 2892 2888 2885 2881 2878 2874 2870 2865 2861 2856 2852 2849 2845 2841 2838 2835 2832 2830 2828 2827
2866 2869 2872 2875 2877 2879 2883 2885 2887 2889 2890 2891 2893 2894 2896 2898 2900 2902 2904 2905 2907 2908 2907 2907 2907 2906 2905 2903 2900 2897 2895 2892 2889 2886 2882 2879 2875 2871 2867 2863 2858 2854 2849 2844 2840 2837 2834 2830 2827 2824 2821 2819 2817 2816